Location: *
(47.6569°N, 7.4256°E)
Time: 00:03:34
(UTC+00:00)

S3M - Pass Details

Date: 14 December 2019
Orbit: 948 x 1005 km, 83.0° (Epoch: 17 January)

Event Time Altitude Azimuth Distance (km) Brightness Sun altitude
Rises 17:22:49 0° 353° (N) 3,679 6.9 -16.6°
Reaches altitude 10° 17:25:25 10° 358° (N) 2,720 6.2 -17.0°
Maximum altitude 17:31:31 56° 77° (ENE) 1,132 4.0 -18.0°
Drops below altitude 10° 17:37:31 10° 155° (SSE) 2,672 6.2 -19.0°
Sets 17:40:02 0° 159° (SSE) 3,610 6.9 -19.4°
